Weather History for KWWR - February, 2013

Change the Weather History Date:

Sunday, February 10, 2013

  Actual Average Record
Temperature  
Mean Temperature 42 °F -  
Max Temperature 53 °F - - ()
Min Temperature 32 °F - - ()
Degree Days  
Heating Degree Days 22    
Moisture  
Dew Point 22 °F    
Average Humidity 45    
Maximum Humidity 76    
Minimum Humidity 26    
Precipitation  
Precipitation 0.00 in - - ()
Sea Level Pressure  
Sea Level Pressure 29.81 in    
Wind  
Wind Speed 14 mph (West)    
Max Wind Speed 26 mph    
Max Gust Speed 33 mph    
Visibility 10 miles    
Events      
T = Trace of Precipitation, MM = Missing Value Source: NWS Daily Summary

Daily Weather History Graph

Daily Weather History Graph

Search for Another Location

Airport or City:

Trip Planner

Search our weather history database for the weather conditions in past years. The results will help you decide how hot, cold, wet, or windy it might be!

Date:

Astronomy

Feb. 10, 2013 Rise Set
Actual Time 7:30 AM CST 6:14 PM CST
Civil Twilight 7:04 AM CST 6:40 PM CST
Nautical Twilight 6:34 AM CST 7:11 PM CST
Astronomical Twilight 6:03 AM CST 7:41 PM CST
Moon 7:23 AM CST (2/10) 7:03 PM CST (2/10)
Length of Visible Light 11h 36m
Length of Day
10h 43m
New Moon, 0% of the Moon is Illuminated
Feb 10
New Moon
Feb 17
First Quarter
Feb 25
Full
Mar 4
Last Quarter
Mar 11
New

Hourly Weather History & Observations

Time (CST) Temp. Windchill Dew Point Humidity Pressure Visibility Wind Dir Wind Speed Gust Speed Precip Events Conditions
12:15 AM 48.2 °F - 41.0 °F 76% 29.63 in 10.0 mi SSW 15.0 mph 24.2 mph N/A   Overcast
12:35 AM 46.4 °F 40.4 °F 39.2 °F 76% 29.63 in 10.0 mi SW 13.8 mph - N/A   Overcast
12:55 AM 46.4 °F 40.4 °F 32.0 °F 57% 29.63 in 10.0 mi SW 13.8 mph - N/A   Mostly Cloudy
1:15 AM 44.6 °F 38.1 °F 28.4 °F 53% 29.62 in 10.0 mi SW 13.8 mph - N/A   Scattered Clouds
1:35 AM 41.0 °F 34.3 °F 28.4 °F 61% 29.61 in 10.0 mi SSW 11.5 mph - N/A   Clear
1:55 AM 41.0 °F 34.7 °F 26.6 °F 57% 29.60 in 10.0 mi SW 10.4 mph - N/A   Clear
2:15 AM 41.0 °F 34.3 °F 24.8 °F 53% 29.61 in 10.0 mi SSW 11.5 mph - N/A   Clear
2:35 AM 41.0 °F 32.8 °F 23.0 °F 49% 29.61 in 10.0 mi SSW 16.1 mph 20.7 mph N/A   Clear
2:55 AM 41.0 °F 32.5 °F 21.2 °F 45% 29.60 in 10.0 mi SSW 17.3 mph - N/A   Clear
3:15 AM 41.0 °F 33.1 °F 19.4 °F 42% 29.60 in 10.0 mi SW 15.0 mph - N/A   Clear
3:35 AM 41.0 °F 32.5 °F 19.4 °F 42% 29.59 in 10.0 mi SSW 17.3 mph 23.0 mph N/A   Clear
3:55 AM 41.0 °F 32.5 °F 19.4 °F 42% 29.59 in 10.0 mi SW 17.3 mph - N/A   Clear
4:15 AM 39.2 °F 30.8 °F 19.4 °F 45% 29.58 in 10.0 mi SW 15.0 mph - N/A   Clear
4:35 AM 37.4 °F 28.5 °F 19.4 °F 48% 29.58 in 10.0 mi SW 15.0 mph 20.7 mph N/A   Clear
4:55 AM 39.2 °F 30.5 °F 19.4 °F 45% 29.59 in 10.0 mi SW 16.1 mph - N/A   Clear
5:15 AM 35.6 °F 28.0 °F 21.2 °F 56% 29.62 in 10.0 mi WSW 10.4 mph - N/A   Clear
5:35 AM 41.0 °F 32.5 °F 21.2 °F 45% 29.63 in 10.0 mi WSW 17.3 mph 23.0 mph N/A   Clear
5:55 AM 39.2 °F 31.6 °F 21.2 °F 49% 29.64 in 10.0 mi WSW 12.7 mph - N/A   Clear
6:15 AM 37.4 °F 29.8 °F 21.2 °F 52% 29.65 in 10.0 mi WSW 11.5 mph - N/A   Clear
6:35 AM 35.6 °F 27.5 °F 21.2 °F 56% 29.65 in 10.0 mi SW 11.5 mph - N/A   Clear
6:55 AM 35.6 °F 27.5 °F 21.2 °F 56% 29.67 in 10.0 mi WSW 11.5 mph - N/A   Clear
7:15 AM 35.6 °F 27.5 °F 24.8 °F 65% 29.68 in 10.0 mi WSW 11.5 mph 16.1 mph N/A   Clear
7:35 AM 35.6 °F 28.0 °F 26.6 °F 70% 29.70 in 10.0 mi SW 10.4 mph - N/A   Clear
7:55 AM 35.6 °F 27.1 °F 26.6 °F 70% 29.70 in 10.0 mi WSW 12.7 mph - N/A   Clear
8:15 AM 35.6 °F 28.6 °F 28.4 °F 75% 29.71 in 10.0 mi WSW 9.2 mph - N/A   Clear
8:35 AM 41.0 °F 33.5 °F 28.4 °F 61% 29.72 in 10.0 mi West 13.8 mph 20.7 mph N/A   Clear
8:55 AM 42.8 °F 35.1 °F 28.4 °F 57% 29.74 in 10.0 mi West 16.1 mph 25.3 mph N/A   Clear
9:15 AM 44.6 °F 36.4 °F 28.4 °F 53% 29.75 in 10.0 mi West 20.7 mph 26.5 mph N/A   Clear
9:35 AM 44.6 °F 35.3 °F 26.6 °F 49% 29.76 in 10.0 mi West 26.5 mph 33.4 mph N/A   Clear
9:55 AM 46.4 °F 38.1 °F 24.8 °F 43% 29.77 in 10.0 mi West 24.2 mph 31.1 mph N/A   Clear
10:15 AM 46.4 °F 38.5 °F 23.0 °F 40% 29.78 in 10.0 mi WNW 21.9 mph 31.1 mph N/A   Clear
10:35 AM 46.4 °F 38.5 °F 23.0 °F 40% 29.79 in 10.0 mi West 21.9 mph 29.9 mph N/A   Clear
10:55 AM 48.2 °F - 21.2 °F 34% 29.79 in 10.0 mi WNW 19.6 mph 27.6 mph N/A   Clear
11:15 AM 50.0 °F - 21.2 °F 32% 29.80 in 10.0 mi WNW 18.4 mph 27.6 mph N/A   Clear
11:35 AM 50.0 °F - 21.2 °F 32% 29.80 in 10.0 mi West 21.9 mph 27.6 mph N/A   Clear
11:55 AM 50.0 °F - 21.2 °F 32% 29.81 in 10.0 mi WNW 17.3 mph 29.9 mph N/A   Clear
12:15 PM 51.8 °F - 21.2 °F 30% 29.81 in 10.0 mi WNW 18.4 mph 26.5 mph N/A   Clear
12:35 PM 51.8 °F - 21.2 °F 30% 29.81 in 10.0 mi West 18.4 mph 26.5 mph N/A   Clear
12:55 PM 53.6 °F - 21.2 °F 28% 29.80 in 10.0 mi WNW 15.0 mph 21.9 mph N/A   Clear
1:15 PM 53.6 °F - 19.4 °F 26% 29.81 in 10.0 mi WNW 19.6 mph 26.5 mph N/A   Clear
1:35 PM 53.6 °F - 19.4 °F 26% 29.81 in 10.0 mi WNW 15.0 mph 25.3 mph N/A   Clear
1:55 PM 53.6 °F - 19.4 °F 26% 29.81 in 10.0 mi WNW 16.1 mph 27.6 mph N/A   Clear
2:15 PM 53.6 °F - 19.4 °F 26% 29.82 in 10.0 mi NW 18.4 mph 26.5 mph N/A   Clear
2:35 PM 53.6 °F - 19.4 °F 26% 29.83 in 10.0 mi WNW 17.3 mph 21.9 mph N/A   Clear
2:55 PM 53.6 °F - 19.4 °F 26% 29.83 in 10.0 mi WNW 15.0 mph 25.3 mph N/A   Clear
3:15 PM 53.6 °F - 19.4 °F 26% 29.84 in 10.0 mi WNW 19.6 mph 26.5 mph N/A   Clear
3:35 PM 53.6 °F - 19.4 °F 26% 29.84 in 10.0 mi WNW 17.3 mph 28.8 mph N/A   Clear
3:55 PM 53.6 °F - 19.4 °F 26% 29.86 in 10.0 mi WNW 17.3 mph 24.2 mph N/A   Clear
4:15 PM 53.6 °F - 19.4 °F 26% 29.86 in 10.0 mi NW 19.6 mph - N/A   Clear
4:35 PM 51.8 °F - 17.6 °F 26% 29.88 in 10.0 mi NW 13.8 mph 23.0 mph N/A   Clear
4:55 PM 51.8 °F - 17.6 °F 26% 29.88 in 10.0 mi NW 12.7 mph 19.6 mph N/A   Clear
5:15 PM 51.8 °F - 17.6 °F 26% 29.90 in 10.0 mi WNW 15.0 mph 20.7 mph N/A   Clear
5:35 PM 51.8 °F - 17.6 °F 26% 29.91 in 10.0 mi WNW 13.8 mph 23.0 mph N/A   Clear
5:55 PM 50.0 °F - 17.6 °F 28% 29.93 in 10.0 mi NW 11.5 mph 21.9 mph N/A   Clear
6:15 PM 46.4 °F 42.9 °F 19.4 °F 34% 29.94 in 10.0 mi NW 6.9 mph - N/A   Clear
6:35 PM 44.6 °F 40.2 °F 19.4 °F 37% 29.95 in 10.0 mi NW 8.1 mph - N/A   Clear
6:55 PM 42.8 °F 38.6 °F 19.4 °F 39% 29.97 in 10.0 mi NNW 6.9 mph - N/A   Clear
7:15 PM 41.0 °F 37.1 °F 19.4 °F 42% 29.98 in 10.0 mi NNW 5.8 mph - N/A   Clear
7:35 PM 39.2 °F 35.9 °F 19.4 °F 45% 29.99 in 10.0 mi NNW 4.6 mph - N/A   Clear
7:55 PM 39.2 °F 33.6 °F 19.4 °F 45% 30.00 in 10.0 mi NNW 8.1 mph - N/A   Clear
8:15 PM 35.6 °F 29.2 °F 19.4 °F 52% 30.01 in 10.0 mi North 8.1 mph - N/A   Clear
8:35 PM 35.6 °F 30.7 °F 19.4 °F 52% 30.02 in 10.0 mi North 5.8 mph - N/A   Clear
8:55 PM 35.6 °F 32.8 °F 19.4 °F 52% 30.03 in 10.0 mi NNE 3.5 mph - N/A   Clear
9:15 PM 35.6 °F 32.8 °F 19.4 °F 52% 30.05 in 10.0 mi ENE 3.5 mph - N/A   Clear
9:35 PM 37.4 °F 33.8 °F 19.4 °F 48% 30.05 in 10.0 mi NE 4.6 mph - N/A   Clear
9:55 PM 35.6 °F 31.7 °F 21.2 °F 56% 30.07 in 10.0 mi ENE 4.6 mph - N/A   Clear
10:15 PM 35.6 °F 30.7 °F 19.4 °F 52% 30.07 in 10.0 mi NNE 5.8 mph - N/A   Clear
10:35 PM 33.8 °F 29.6 °F 21.2 °F 60% 30.07 in 10.0 mi NE 4.6 mph - N/A   Clear
10:55 PM 35.6 °F 30.7 °F 21.2 °F 56% 30.08 in 10.0 mi NNE 5.8 mph - N/A   Clear
11:15 PM 33.8 °F 27.0 °F 21.2 °F 60% 30.08 in 10.0 mi North 8.1 mph - N/A   Clear
11:35 PM 32.0 °F 28.7 °F 21.2 °F 64% 30.09 in 10.0 mi NW 3.5 mph - N/A   Clear
11:55 PM 32.0 °F 24.8 °F 19.4 °F 60% 30.10 in 10.0 mi NNW 8.1 mph - N/A   Clear